Theta_e
353 360 365 365 363 363 362 360 361 361 361 362 361 361 361 360 360 360 360 361 361 361 359 355 354 355 354 354 354 354 356 355 354 355 355 354 354 353 353 352 351 348 349
356 361 364 365 364 362 362 360 360 360 360 361 361 360 360 359 360 360 361 362 362 359 358 354 354 355 354 353 353 353 353 354 355 353 353 353 354 353 352 351 351 348 350
356 360 362 364 363 362 361 361 360 360 359 359 360 359 359 359 360 361 361 362 361 359 358 354 354 354 354 353 352 352 353 353 354 352 352 345 347 354 351 350 351 350 349
357 359 360 364 364 362 360 361 360 360 359 359 359 359 359 359 359 360 362 361 359 357 356 354 354 354 353 353 353 353 353 353 353 351 342 343 345 351 350 350 350 350 349
356 358 360 364 363 361 360 360 359 359 358 359 359 359 359 359 360 361 361 361 358 356 355 353 353 354 353 353 352 354 354 354 352 350 345 344 336 347 350 350 349 349 348
355 357 362 363 362 362 359 359 360 359 359 359 359 359 359 358 359 360 361 361 359 357 353 352 353 354 354 353 353 351 351 354 352 343 342 344 341 349 350 349 349 351 350
355 357 360 362 362 361 359 359 359 359 359 359 359 359 358 359 359 359 360 360 359 357 354 352 353 354 354 353 351 352 354 351 345 340 338 340 343 348 352 352 351 350 349
355 357 358 362 361 360 360 360 359 358 358 359 359 359 359 359 359 359 359 359 358 357 355 354 353 353 353 354 354 355 353 350 345 340 338 337 341 349 352 356 355 351 349
357 356 357 358 360 361 360 359 359 358 358 358 358 358 358 359 359 359 358 358 356 356 356 356 355 354 354 354 354 354 353 351 343 341 340 338 346 351 352 357 355 353 351
354 356 355 357 357 356 356 359 358 358 357 357 357 357 357 358 358 358 355 355 355 354 355 354 354 354 353 353 353 353 353 352 341 338 337 335 349 351 352 357 357 355 353
351 353 354 355 355 355 354 357 358 358 357 357 357 357 354 350 352 353 354 355 355 354 354 354 354 353 353 353 353 353 353 344 341 338 335 341 348 353 354 358 356 355 355
346 349 352 352 351 353 356 354 352 353 353 352 352 352 349 347 347 351 353 355 355 354 354 354 354 353 352 344 342 345 342 341 340 338 335 343 347 353 357 358 358 356 355
348 349 350 351 351 351 351 353 353 352 351 350 351 350 347 346 347 347 346 348 347 352 346 350 349 347 344 342 341 338 336 334 335 337 338 346 346 350 357 359 359 357 356
346 347 349 348 349 350 351 351 351 351 350 349 350 349 346 343 341 342 343 342 343 345 343 342 341 340 340 340 339 337 334 331 331 334 336 345 346 349 355 360 360 358 355
344 344 346 347 348 347 350 351 351 351 350 349 349 350 348 345 342 342 343 342 342 342 342 339 337 336 335 334 334 332 331 329 328 331 333 341 345 348 353 358 359 358 354
343 342 343 346 344 341 342 347 349 349 349 349 349 350 349 344 342 341 341 341 341 342 339 339 337 335 333 332 332 333 332 335 336 335 335 334 343 343 347 349 351 353 357
342 343 341 344 344 343 344 345 343 344 347 347 346 348 349 345 340 339 340 340 341 341 339 340 339 337 333 335 333 333 334 338 337 336 336 336 337 341 344 345 346 348 349
341 340 341 344 341 339 343 345 345 343 342 343 343 343 346 346 344 342 342 340 342 340 338 337 335 334 333 331 329 332 335 338 337 336 336 336 335 335 339 344 346 348 350
339 339 338 338 337 335 341 342 343 345 343 344 344 342 343 345 345 342 340 340 340 336 335 334 327 329 327 325 325 328 332 332 335 337 336 335 335 335 335 338 344 346 348
337 338 335 331 329 333 339 339 342 345 342 340 340 342 345 346 344 342 335 336 334 331 330 327 324 326 326 324 329 330 330 332 332 332 333 335 335 335 335 336 336 337 341
333 329 328 329 330 335 334 336 337 334 337 338 336 338 343 343 342 337 332 330 329 327 326 325 323 322 322 323 322 320 322 325 327 329 325 325 326 329 332 335 336 336 336
330 329 329 332 335 335 336 337 338 337 335 338 338 339 341 342 339 334 330 327 326 324 323 322 320 318 318 320 315 314 310 313 317 324 324 324 324 328 332 333 334 334 332
327 329 332 332 334 335 338 334 332 334 332 327 326 327 331 335 340 335 331 327 327 325 322 322 321 319 316 314 314 312 306 305 311 316 317 320 324 328 330 331 331 333 332
328 328 329 334 333 337 336 330 330 327 323 320 319 320 322 324 325 330 335 332 334 329 329 329 327 318 313 310 312 318 316 314 309 309 316 319 322 324 326 327 327 329 331
324 322 322 323 324 325 326 327 326 320 319 317 316 317 317 318 320 320 319 321 320 321 320 319 319 317 318 318 316 313 315 318 319 318 315 318 321 322 324 328 330 332 333
320 319 319 320 319 319 320 320 318 316 316 314 312 313 313 313 314 315 316 314 312 312 312 312 313 313 313 315 317 319 320 320 320 319 317 317 318 323 326 327 327 325 328
Wind_Speed
6 9 13 13 12 14 16 18 18 18 18 18 17 16 15 16 16 16 16 15 14 12 12 11 11 12 13 13 13 13 12 12 13 14 12 11 10 10 9 12 13 8 13
15 14 16 14 13 15 16 17 17 18 18 19 18 17 16 16 16 16 16 15 13 13 12 10 11 11 12 12 12 13 12 10 10 11 11 9 7 9 9 10 10 8 11
14 15 15 16 16 15 16 16 16 17 17 18 18 18 17 16 15 15 14 13 13 13 12 11 11 11 11 12 12 12 12 11 10 10 9 4 3 12 10 11 11 11 10
13 12 15 18 17 16 16 16 16 16 16 16 16 16 15 15 14 14 12 12 11 11 11 11 10 10 10 11 11 11 10 9 8 9 4 3 3 7 9 10 10 9 8
12 11 11 19 19 17 16 14 15 16 16 16 15 15 14 14 13 12 11 10 10 9 8 8 9 9 9 9 9 7 7 6 5 2 2 3 2 5 8 10 10 9 8
12 10 14 15 18 17 16 14 14 15 15 16 15 14 14 13 12 11 10 9 9 8 7 6 5 6 7 7 6 5 4 2 2 2 3 5 6 6 8 9 10 9 9
11 11 12 15 16 18 17 15 12 13 14 14 14 13 13 12 11 10 10 9 8 8 7 6 4 3 4 5 5 3 2 2 3 4 5 4 5 9 11 11 12 11 11
14 11 12 16 16 16 16 15 13 12 13 14 14 13 12 11 9 8 7 7 7 6 6 5 4 3 2 1 1 0 1 2 3 4 5 0 5 9 12 11 11 12 12
13 12 10 10 13 15 14 13 13 12 12 12 12 12 11 10 9 8 7 5 4 4 4 4 3 3 2 3 3 4 4 4 2 3 4 3 7 9 12 12 12 12 12
10 13 13 10 9 8 8 12 11 11 11 11 11 12 11 11 9 8 7 6 6 5 5 5 5 6 6 5 5 5 6 7 0 3 3 3 7 11 14 13 14 13 13
8 11 13 13 11 8 7 9 11 13 11 11 10 11 9 4 6 7 6 6 6 5 5 5 5 5 6 6 7 7 8 3 4 2 2 7 9 12 15 15 15 14 14
11 10 9 10 8 7 6 5 5 7 5 6 6 7 5 6 5 6 7 9 9 8 8 8 7 7 5 2 3 7 3 4 3 3 2 10 11 12 17 17 17 17 16
12 9 11 11 8 7 7 6 4 3 4 5 9 7 5 4 4 3 3 3 3 8 3 5 5 3 5 4 4 3 4 4 3 3 7 11 13 14 16 18 17 17 16
14 14 11 10 11 9 6 5 5 4 3 3 4 6 5 4 4 4 3 4 4 3 4 4 3 4 4 4 3 5 5 4 3 3 6 13 14 16 17 18 18 17 16
14 12 13 12 10 7 9 10 11 10 7 5 5 6 5 5 5 4 4 3 4 3 3 3 1 1 2 4 4 5 5 5 4 3 3 12 14 13 14 17 17 15 16
13 15 12 13 13 13 10 9 6 4 6 5 5 6 7 4 5 5 5 4 3 2 3 4 4 3 2 2 2 1 2 3 3 3 2 5 11 10 7 9 12 12 14
16 16 16 16 13 13 8 5 4 3 5 8 5 5 7 5 5 4 3 3 3 4 5 3 3 4 4 3 3 2 3 3 2 1 3 2 5 10 9 8 8 10 13
14 15 15 14 11 5 7 8 5 5 4 3 5 3 4 6 7 4 3 3 4 3 3 3 2 1 1 2 2 3 4 4 5 6 5 5 6 7 10 14 14 15 15
17 17 16 12 8 7 6 4 5 4 4 4 4 4 6 5 6 4 4 3 4 4 3 3 1 2 3 3 4 5 4 5 5 5 6 6 9 11 8 15 20 17 16
14 14 7 4 6 5 4 2 2 3 4 3 4 5 8 7 7 4 4 4 5 4 3 3 3 4 3 2 3 4 5 5 4 4 6 5 7 9 7 8 7 7 14
8 7 5 6 6 5 2 3 1 2 2 1 3 5 4 4 5 5 4 5 4 5 4 4 2 3 2 2 2 4 4 6 7 7 4 4 10 11 7 7 7 5 7
11 8 6 5 6 5 4 3 2 3 3 4 2 4 3 3 4 4 5 4 5 4 5 4 2 1 2 1 0 0 5 5 4 5 4 7 12 6 8 8 8 9 8
10 11 7 5 3 4 5 4 4 5 3 3 3 4 5 5 5 4 4 3 4 3 3 2 1 1 2 2 2 2 3 4 4 3 5 5 7 6 5 8 7 9 8
7 7 7 9 10 4 6 4 5 3 5 3 3 4 5 8 10 8 5 2 3 3 2 1 1 1 2 2 3 3 3 2 3 6 3 5 5 7 8 7 7 7 8
10 8 6 6 7 4 8 7 7 10 6 4 4 9 8 8 9 8 8 7 7 4 5 5 4 2 2 2 3 2 3 4 6 6 11 9 4 6 7 5 7 7 8
10 10 8 9 9 7 8 7 11 12 8 7 5 7 5 4 4 7 7 6 6 5 4 4 4 4 3 3 2 3 3 4 3 5 6 11 11 8 9 9 8 5 6
Wind_Direction
195 157 159 151 140 126 119 119 119 119 117 115 111 107 107 113 118 120 123 126 126 130 132 128 121 115 113 115 116 114 113 119 122 121 120 119 118 123 132 129 126 129 123
146 153 155 147 143 131 125 125 126 124 122 121 120 119 120 123 126 127 128 128 130 134 136 130 124 121 119 119 117 116 118 113 111 117 118 111 113 152 133 132 130 128 127
144 150 150 148 146 138 134 135 134 131 129 128 126 125 125 125 125 124 126 128 131 138 140 138 136 130 128 125 121 119 120 118 121 123 120 122 122 137 142 144 143 139 138
143 148 150 150 143 144 143 142 137 132 130 128 125 124 124 124 124 125 125 128 131 137 142 143 140 132 129 126 122 123 122 124 128 125 112 144 161 155 155 148 143 142 143
140 144 155 151 144 146 148 144 139 137 135 133 130 128 127 126 124 124 128 131 135 135 139 144 142 139 135 131 125 122 121 122 124 130 216 211 244 182 174 161 154 155 156
138 136 150 149 141 141 147 149 144 143 143 138 136 134 133 132 129 129 131 136 140 140 142 146 150 146 138 130 121 121 110 105 41 342 279 239 194 201 197 188 172 166 175
134 135 143 145 141 141 148 151 148 145 142 138 136 137 139 136 136 136 138 141 144 148 151 155 159 151 142 135 134 125 84 9 5 340 321 291 197 198 209 203 190 180 180
139 138 141 145 145 147 151 153 151 148 147 145 143 143 142 136 135 136 139 144 141 144 155 162 170 176 181 167 160 162 344 352 13 340 330 3 206 196 218 227 203 194 194
137 137 137 142 150 150 152 150 150 151 151 148 144 142 141 142 140 142 145 139 133 139 152 166 188 206 231 271 292 306 316 323 10 316 326 344 236 215 223 236 228 212 207
122 138 145 144 147 145 149 152 152 149 149 144 144 143 147 151 155 158 163 163 163 173 184 193 205 217 233 247 263 284 300 308 309 287 291 283 261 229 227 238 239 229 219
126 148 157 160 158 152 144 156 149 152 144 147 151 153 152 150 162 175 177 186 181 187 200 214 227 246 265 284 290 291 295 297 309 278 283 285 288 251 231 235 237 239 235
149 159 153 155 144 123 146 124 130 156 155 159 164 167 164 165 166 174 185 193 192 194 197 204 216 225 247 263 287 310 316 316 309 296 258 270 271 258 238 235 234 236 234
151 167 164 147 122 133 133 155 168 167 171 178 178 171 159 154 172 173 180 191 204 210 206 211 210 210 216 223 244 264 280 296 295 293 284 273 272 273 254 239 236 239 243
165 170 158 148 146 155 145 148 179 179 192 187 187 163 162 167 177 186 193 193 205 210 198 206 217 224 249 273 291 313 316 307 289 285 289 296 282 282 263 245 237 238 242
167 168 166 162 163 169 177 171 181 176 180 171 166 190 178 194 182 175 203 191 208 186 192 197 229 254 252 240 234 220 224 234 259 285 291 308 305 291 276 263 254 259 263
170 174 171 179 175 175 194 190 177 198 139 154 180 200 182 170 199 190 193 198 194 182 170 188 216 227 233 197 152 228 175 135 99 105 111 340 341 341 303 281 282 283 283
183 176 181 183 189 181 181 157 133 168 179 173 182 183 182 167 241 216 185 163 176 190 189 155 143 143 138 132 138 200 245 179 190 244 275 219 296 308 304 297 260 252 260
171 187 187 189 189 138 128 140 162 182 166 164 148 132 209 194 209 198 132 106 113 94 104 126 98 59 78 136 174 229 220 228 222 222 210 221 248 265 270 256 260 268 260
186 185 194 197 185 141 136 151 146 159 151 126 139 156 220 212 215 187 108 139 144 147 151 141 141 195 205 225 224 232 243 251 258 269 245 234 232 243 229 253 243 238 253
188 190 204 125 115 136 127 97 70 89 85 127 148 183 200 190 203 152 124 140 142 133 160 170 186 211 220 248 303 289 262 274 289 276 277 282 278 266 260 261 265 259 256
179 171 199 144 146 143 123 105 132 162 115 165 184 177 167 168 156 137 129 136 158 160 173 175 170 211 268 238 321 312 290 265 258 258 251 270 275 270 248 248 248 244 253
184 171 158 162 152 170 175 135 125 119 114 89 81 90 134 127 120 127 136 155 161 150 159 172 134 52 285 173 246 351 311 326 322 261 255 261 263 271 286 279 280 283 272
174 187 171 137 177 179 137 98 72 94 91 80 45 53 36 63 86 82 81 122 151 137 163 154 200 214 278 342 212 198 306 263 319 303 284 262 273 271 263 275 271 273 294
167 115 110 166 141 185 130 136 161 134 120 84 86 85 61 54 56 46 59 106 85 72 50 325 73 177 152 265 328 230 230 212 283 317 303 308 292 281 275 267 266 259 262
95 88 89 87 78 94 119 134 111 96 97 106 90 88 69 52 49 57 58 59 57 48 42 36 12 347 190 210 196 263 252 237 234 253 286 289 290 294 292 269 263 261 259
92 94 88 84 64 60 77 82 105 115 121 107 88 86 70 65 50 49 51 50 47 40 28 7 7 9 359 318 281 287 270 291 317 305 291 300 303 304 299 294 281 252 257